Location: Ciserano
(45.5833°N, 9.6000°E)
Time: 04:15:16
(UTC+00:00)

USA 305 - Pass Details

Date: 29 November 2020
Orbit: 565 x 578 km, 54.0° (Epoch: 22 January)

Event Time Altitude Azimuth Distance (km) Brightness Sun altitude
Exits shadow 05:40:58 12° 313° (NW) 1,781 4.8 -10.1°
Maximum altitude 05:44:37 35° 18° (NNE) 942 4.0 -9.5°
Drops below altitude 10° 05:48:36 10° 85° (E) 1,890 6.7 -8.8°
Sets 05:51:00 0° 94° (E) 2,786 8.1 -8.4°
